Wind_Speed
33 32 38 31 29 31 32 33 34 30 23 21 21 25 28 29 30 30 31 32 34 36 37 38 40 45 49 49 47 47 50 54 56 58 62 64 67 71 73 76 76 74 74 78
38 34 37 34 34 35 37 34 39 33 26 24 26 27 32 32 33 32 34 36 37 38 39 42 46 48 47 47 47 47 50 55 56 62 64 69 68 70 73 73 75 76 77 80
40 37 39 37 35 35 36 37 41 32 31 28 28 28 36 36 37 37 39 40 40 41 43 46 49 51 53 53 57 59 58 62 65 69 71 73 77 81 78 80 78 77 79 73
41 44 44 40 38 40 37 40 39 37 33 32 34 27 40 41 41 43 45 45 47 48 49 51 53 56 58 60 63 64 68 71 71 71 69 68 70 76 74 78 84 86 84 85
49 48 47 43 45 40 36 41 42 42 38 34 37 42 37 46 49 50 52 52 50 54 56 57 58 61 63 63 64 66 70 73 76 78 79 79 79 82 89 84 90 80 80 84
54 54 52 51 50 47 43 46 49 46 44 35 48 51 36 54 57 58 58 57 57 57 59 61 58 58 62 66 68 71 73 76 82 86 89 92 97 93 91 87 82 82 89 88
61 57 55 55 57 56 52 51 50 50 52 50 53 53 46 54 60 63 62 63 63 63 63 63 68 68 64 67 66 69 76 81 87 90 91 89 92 95 91 86 86 83 90 92
61 57 57 57 60 60 59 58 56 55 53 54 54 51 54 60 63 64 64 65 66 66 68 69 71 70 65 67 71 77 82 86 89 93 92 95 97 98 98 87 91 92 92 100
56 57 58 59 60 60 59 56 62 59 56 56 55 55 57 59 62 64 65 66 69 70 71 75 75 74 76 76 82 85 87 89 95 97 98 101 98 92 97 93 95 101 104 107
55 57 58 58 59 58 57 60 62 63 63 62 59 60 63 65 68 70 74 77 79 79 81 80 73 77 79 83 85 90 95 97 97 99 104 99 100 96 89 93 98 106 112 117
62 59 59 59 60 62 62 62 66 69 68 67 67 64 66 70 73 76 79 82 83 84 86 83 84 85 89 93 95 95 98 98 102 103 105 110 105 108 104 101 105 114 119 121
68 68 64 62 63 65 65 64 69 72 73 75 72 66 72 74 76 79 82 85 85 83 82 87 90 91 89 92 94 101 104 102 110 105 107 97 102 104 103 110 116 124 126 124
75 73 73 70 69 69 71 72 73 76 79 74 78 73 80 78 82 85 87 87 87 87 87 91 92 95 96 98 100 101 106 107 104 91 98 101 104 117 117 117 126 131 123 120
80 79 76 73 75 77 78 78 79 81 81 77 75 78 80 83 83 84 86 89 91 91 93 96 100 99 103 106 105 105 99 101 98 100 104 111 114 120 122 130 130 132 127 116
82 80 81 81 83 84 83 81 83 84 80 86 79 82 85 90 90 90 88 89 93 97 99 99 99 109 101 105 107 104 104 104 108 112 116 121 124 130 138 144 140 124 123 107
85 84 86 82 84 89 90 83 79 81 81 84 87 84 88 96 100 98 98 96 95 102 106 100 103 99 105 111 106 107 105 106 110 117 123 127 132 140 148 146 131 122 108 105
88 87 89 89 91 92 97 81 87 85 86 85 89 89 96 101 104 103 107 104 95 94 89 93 112 111 109 110 108 114 114 120 125 131 136 138 141 152 157 138 129 116 110 106
90 90 95 94 92 99 92 91 90 91 91 94 93 93 99 103 103 100 97 102 103 108 112 117 112 116 116 120 125 122 123 126 131 133 147 153 158 161 142 133 118 116 112 106
94 95 97 99 98 98 91 85 89 98 98 94 100 100 99 99 101 103 107 110 114 117 120 121 123 121 125 128 131 136 136 142 142 147 151 160 164 151 139 118 122 116 111 104
97 90 92 98 100 99 93 95 96 102 100 99 104 106 107 107 109 111 114 120 118 121 125 129 128 130 134 136 139 141 146 151 155 155 158 164 147 144 125 129 118 115 107 101
101 99 101 102 104 102 103 107 105 108 106 110 111 111 113 113 115 118 121 122 122 127 133 129 132 136 139 140 143 148 151 156 157 162 164 156 145 131 130 122 118 110 105 99
104 103 106 107 110 109 111 113 115 116 114 114 114 114 116 118 121 121 123 123 127 131 134 134 133 139 142 146 150 153 155 159 163 165 160 162 140 129 125 118 112 106 101 97
111 109 112 112 114 119 120 119 122 126 125 123 119 118 121 125 122 125 123 125 132 134 133 141 145 146 150 151 156 157 163 165 164 162 158 138 127 126 118 111 106 102 99 96
115 117 117 118 118 122 126 129 130 128 126 126 125 125 122 122 125 130 135 137 142 145 145 147 148 152 156 159 157 166 162 160 162 143 130 128 123 118 111 106 103 101 98 94
121 118 118 127 128 130 132 134 133 132 126 121 121 127 133 134 137 142 143 143 144 146 150 152 157 159 157 160 158 160 160 151 130 133 127 122 116 112 106 103 100 97 94 91
128 129 129 130 135 135 132 132 134 133 134 137 137 139 142 143 146 143 149 152 152 153 156 159 160 164 160 162 161 157 147 137 127 127 121 116 111 107 102 98 95 92 91 88
Wind_Direction
263 263 259 261 262 262 264 262 265 265 265 271 276 281 282 285 285 285 285 283 284 287 289 289 292 295 295 296 298 297 297 296 298 296 295 296 293 294 293 292 288 286 287 288
260 259 263 262 263 262 262 263 265 266 266 270 275 280 280 281 281 281 281 280 280 279 282 287 291 291 290 292 289 291 292 304 303 303 302 300 294 293 290 287 284 285 282 279
263 261 264 261 266 267 267 261 261 267 267 270 273 279 280 280 279 280 281 278 275 274 276 281 285 285 287 291 290 287 293 296 294 296 298 298 298 298 294 290 282 280 282 279
264 263 262 267 267 265 268 267 262 264 268 271 273 270 280 278 278 278 279 280 278 278 279 280 286 289 285 287 290 290 291 292 293 294 295 294 295 291 284 282 277 278 277 282
261 265 266 267 268 267 268 269 265 265 268 270 275 271 272 280 279 278 277 277 278 275 276 279 280 284 285 286 285 284 286 288 291 294 295 294 295 292 289 284 285 281 283 285
259 259 264 263 267 269 271 272 269 268 268 270 271 272 277 278 280 277 276 276 276 278 277 277 280 287 285 284 284 283 283 287 290 293 295 294 292 290 289 286 289 292 290 287
257 261 265 266 267 270 272 273 272 271 270 269 269 276 279 275 277 279 278 276 274 277 274 276 280 288 285 283 280 283 284 284 288 290 292 292 290 290 286 286 290 293 296 297
261 260 262 263 264 265 269 275 273 270 270 270 270 274 273 277 278 277 276 274 273 273 274 279 283 284 286 283 281 283 284 286 289 293 292 289 288 286 286 287 294 291 295 295
262 262 257 259 262 266 270 272 268 270 272 271 271 271 272 275 279 282 281 280 277 276 277 280 284 284 282 282 285 288 289 288 290 289 288 288 287 288 291 294 295 303 305 304
263 261 259 259 261 266 266 266 268 270 269 271 272 270 272 278 281 280 279 279 280 281 280 282 284 286 285 285 287 288 286 287 287 288 292 292 287 297 300 304 306 305 306 308
263 261 259 259 262 262 265 268 270 269 269 269 268 273 275 276 276 274 275 277 277 277 280 280 282 285 286 287 288 287 288 287 289 292 292 288 288 292 299 305 309 313 312 310
263 262 261 259 260 262 265 268 268 266 265 266 271 272 273 272 274 273 272 274 276 278 277 279 283 284 286 289 288 288 286 288 289 287 288 292 293 293 300 309 311 313 311 314
260 261 261 262 264 266 265 264 265 268 268 270 273 276 274 275 273 274 274 275 276 275 276 279 283 283 282 286 288 290 292 288 284 297 294 306 297 307 311 311 311 312 310 310
260 260 263 264 263 263 265 264 265 266 268 271 272 273 273 274 273 274 275 276 276 277 278 279 282 287 282 283 292 292 294 296 294 299 297 302 310 313 314 308 310 312 312 309
260 259 260 262 263 264 265 265 265 267 271 273 272 270 275 277 275 276 278 276 275 278 280 283 291 287 289 292 291 296 295 301 303 302 310 311 313 312 314 313 312 310 311 304
260 261 261 262 265 266 265 264 268 272 275 274 274 272 273 273 278 279 279 283 283 280 279 282 293 301 297 290 298 299 298 307 309 311 313 313 312 315 315 312 311 309 305 303
260 264 266 266 267 269 267 271 270 273 274 277 274 272 272 273 277 280 278 285 284 290 297 298 296 300 303 305 307 305 308 309 309 310 312 312 312 313 312 310 312 308 307 305
263 267 267 269 268 268 272 268 270 271 273 275 277 274 271 273 278 284 288 294 299 304 305 307 303 303 304 306 307 310 309 311 310 310 309 313 313 312 311 310 309 308 307 305
263 267 269 267 270 273 273 276 274 273 277 278 282 284 286 286 290 295 296 300 300 302 305 305 305 306 304 305 308 308 309 310 310 309 311 310 310 311 312 309 308 307 305 303
267 269 269 268 272 276 278 281 281 284 283 286 286 286 288 291 295 296 299 299 301 301 302 304 305 303 304 304 305 305 306 307 307 309 308 311 311 312 308 308 307 305 304 302
269 270 272 273 275 276 283 284 284 284 286 283 286 289 291 294 295 296 296 297 296 299 301 302 301 303 303 302 302 304 303 304 305 306 309 310 310 308 307 307 305 304 302 301
268 269 272 274 275 277 280 279 279 282 285 286 285 286 290 291 292 293 293 291 293 296 298 299 298 298 298 298 299 300 302 303 304 306 308 308 306 305 305 304 303 302 301 300
264 266 269 269 272 274 277 276 278 281 282 286 287 287 286 290 291 291 291 287 290 295 294 294 295 295 296 297 298 300 301 303 304 305 304 304 304 304 304 303 303 301 299 299
262 268 268 269 272 275 275 276 279 281 282 285 284 284 286 285 287 289 290 291 291 292 293 293 295 296 295 296 298 298 301 302 302 303 302 304 304 303 303 302 300 299 298 298
265 267 267 272 273 274 274 276 279 280 281 279 280 283 285 286 284 286 287 289 290 291 292 291 291 294 296 296 299 299 300 301 300 301 302 302 301 302 301 300 298 297 297 297
266 269 270 272 273 275 275 273 277 281 282 282 283 283 282 283 285 284 286 287 287 288 290 292 292 294 296 297 297 298 299 298 300 301 301 301 301 301 300 298 297 296 296 297
Height
10749 10751 10747 10752 10755 10755 10755 10755 10753 10755 10760 10760 10759 10756 10756 10756 10756 10754 10753 10752 10750 10749 10749 10748 10747 10745 10743 10741 10739 10736 10734 10730 10727 10725 10722 10718 10714 10710 10706 10701 10698 10694 10690 10687
10739 10742 10740 10743 10744 10745 10745 10747 10743 10746 10751 10752 10751 10749 10746 10747 10747 10745 10744 10743 10742 10741 10741 10739 10737 10735 10732 10731 10728 10725 10723 10719 10715 10712 10709 10704 10701 10697 10691 10685 10681 10678 10673 10667
10730 10733 10730 10732 10734 10735 10736 10737 10734 10738 10739 10743 10742 10743 10738 10737 10736 10736 10734 10733 10731 10730 10728 10727 10726 10724 10722 10719 10716 10714 10710 10706 10702 10698 10693 10689 10685 10680 10676 10671 10665 10658 10655 10648
10721 10720 10720 10721 10723 10722 10727 10725 10727 10728 10730 10732 10732 10737 10728 10726 10727 10724 10723 10722 10721 10720 10719 10717 10715 10713 10710 10708 10705 10702 10697 10692 10686 10681 10676 10669 10664 10659 10654 10648 10642 10637 10630 10627
10708 10708 10709 10712 10710 10713 10718 10715 10716 10718 10720 10724 10724 10720 10727 10716 10714 10714 10712 10710 10709 10708 10706 10704 10703 10701 10699 10697 10693 10688 10683 10677 10671 10666 10660 10654 10649 10643 10639 10630 10626 10616 10609 10601
10693 10695 10697 10699 10699 10701 10706 10705 10703 10707 10709 10716 10710 10706 10721 10705 10701 10700 10699 10698 10697 10695 10693 10691 10689 10688 10686 10683 10678 10673 10666 10660 10654 10647 10641 10634 10628 10622 10616 10609 10600 10592 10585 10577
10677 10682 10685 10687 10686 10687 10690 10691 10693 10695 10696 10701 10698 10695 10706 10698 10690 10685 10684 10683 10682 10680 10678 10677 10675 10673 10670 10665 10660 10655 10648 10642 10635 10628 10621 10614 10608 10601 10594 10584 10574 10565 10557 10547
10667 10671 10670 10673 10672 10674 10677 10678 10679 10678 10682 10685 10686 10690 10687 10680 10678 10674 10671 10667 10664 10662 10661 10661 10657 10654 10650 10645 10639 10633 10627 10622 10614 10608 10601 10594 10587 10579 10571 10559 10550 10540 10528 10519
10650 10657 10656 10658 10658 10660 10665 10667 10657 10663 10667 10669 10673 10673 10672 10669 10663 10661 10658 10654 10649 10647 10647 10644 10641 10637 10632 10626 10620 10614 10608 10599 10592 10585 10576 10571 10560 10550 10540 10531 10521 10510 10498 10484
10637 10639 10642 10644 10644 10647 10649 10646 10646 10648 10650 10651 10658 10657 10657 10656 10651 10647 10640 10636 10634 10634 10630 10626 10622 10618 10613 10606 10601 10595 10585 10578 10569 10560 10552 10543 10533 10523 10512 10502 10491 10481 10466 10454
10618 10622 10627 10630 10633 10628 10630 10634 10631 10629 10632 10631 10635 10643 10643 10637 10632 10626 10621 10618 10615 10615 10612 10608 10602 10596 10590 10584 10578 10569 10561 10552 10544 10536 10525 10516 10504 10496 10483 10471 10459 10446 10434 10420
10600 10604 10610 10614 10615 10615 10617 10620 10614 10611 10611 10611 10618 10630 10621 10618 10613 10606 10601 10599 10598 10596 10591 10586 10580 10573 10565 10560 10551 10544 10535 10526 10518 10507 10498 10484 10475 10465 10450 10438 10427 10414 10399 10384
10581 10586 10588 10596 10600 10602 10597 10594 10595 10592 10592 10604 10599 10612 10594 10597 10588 10585 10582 10582 10580 10577 10571 10564 10558 10550 10543 10534 10526 10516 10508 10499 10489 10475 10467 10454 10442 10432 10419 10407 10395 10379 10363 10347
10561 10565 10573 10579 10577 10576 10577 10577 10576 10572 10577 10584 10590 10583 10573 10569 10565 10561 10561 10561 10558 10553 10548 10541 10534 10525 10516 10508 10497 10488 10477 10468 10458 10448 10435 10422 10411 10400 10388 10375 10358 10342 10326 10310
10542 10547 10547 10555 10553 10554 10557 10560 10558 10558 10566 10557 10573 10565 10550 10541 10536 10536 10538 10535 10532 10528 10522 10515 10507 10496 10486 10477 10468 10457 10446 10433 10429 10417 10403 10392 10384 10369 10354 10339 10321 10305 10291 10277
10523 10529 10526 10535 10535 10531 10532 10540 10547 10545 10544 10539 10539 10545 10532 10516 10512 10512 10512 10509 10505 10500 10494 10486 10474 10465 10457 10448 10437 10427 10414 10404 10395 10385 10374 10361 10350 10332 10317 10300 10280 10270 10255 10245
10504 10509 10508 10512 10510 10507 10500 10538 10521 10524 10522 10518 10513 10519 10502 10495 10489 10488 10486 10482 10476 10469 10463 10456 10446 10435 10424 10415 10404 10395 10382 10370 10362 10352 10341 10329 10315 10299 10281 10263 10245 10232 10222 10211
10489 10490 10483 10485 10486 10476 10501 10498 10502 10497 10495 10493 10489 10487 10477 10472 10467 10463 10460 10452 10445 10437 10429 10421 10413 10404 10395 10381 10372 10363 10350 10341 10331 10320 10309 10294 10279 10264 10245 10225 10210 10200 10190 10179
10469 10468 10462 10457 10460 10457 10468 10479 10475 10468 10469 10466 10463 10455 10448 10445 10439 10437 10429 10423 10417 10408 10399 10390 10383 10372 10362 10351 10340 10329 10317 10309 10302 10287 10276 10263 10249 10228 10211 10194 10183 10170 10159 10149
10443 10442 10440 10435 10434 10434 10446 10444 10442 10436 10438 10438 10429 10422 10422 10419 10413 10409 10400 10393 10385 10380 10371 10362 10353 10344 10329 10319 10308 10297 10288 10279 10268 10259 10248 10235 10213 10197 10180 10167 10153 10141 10129 10120
10414 10416 10411 10408 10407 10407 10412 10411 10409 10405 10412 10404 10402 10395 10392 10388 10385 10381 10374 10368 10360 10352 10344 10334 10325 10314 10300 10290 10280 10271 10262 10250 10239 10228 10214 10197 10183 10166 10152 10138 10124 10112 10101 10092
10390 10389 10389 10385 10383 10384 10388 10383 10382 10378 10376 10376 10375 10371 10367 10363 10359 10354 10351 10343 10333 10324 10316 10305 10296 10287 10276 10267 10257 10247 10234 10219 10207 10194 10179 10167 10152 10139 10125 10109 10096 10083 10073 10065
10364 10366 10367 10368 10365 10361 10359 10353 10349 10347 10346 10350 10353 10350 10344 10340 10333 10327 10320 10313 10307 10296 10286 10279 10272 10262 10250 10237 10227 10216 10204 10190 10176 10162 10148 10136 10122 10110 10095 10081 10067 10056 10046 10039
10343 10342 10341 10340 10341 10333 10326 10321 10318 10317 10322 10323 10325 10323 10318 10310 10307 10298 10290 10284 10277 10269 10259 10251 10241 10232 10222 10208 10200 10187 10172 10158 10146 10130 10116 10105 10090 10077 10065 10053 10041 10030 10020 10013
10318 10315 10317 10311 10304 10299 10294 10292 10289 10292 10296 10293 10290 10293 10288 10281 10276 10271 10265 10255 10246 10236 10226 10220 10211 10201 10190 10179 10168 10154 10142 10128 10111 10102 10088 10076 10063 10051 10039 10027 10015 10005 9996 9988
10293 10286 10280 10275 10269 10265 10257 10258 10259 10264 10266 10264 10266 10261 10255 10252 10245 10239 10230 10220 10214 10205 10196 10187 10176 10165 10155 10146 10133 10121 10107 10097 10081 10070 10057 10045 10032 10022 10011 10000 9989 9979 9971 9963